星链-11376 (STARLINK-11376)

导读

STARLINK-11376是美国SpaceX公司星链星座的卫星,于2024年10月18日发射,星链旨在低轨构建大规模卫星互联网,为全球提供高速宽带接入,该卫星运行于低地球轨道,配备天线与太阳能电池板,属于星链第二代组网卫星,助力扩大星座覆盖范围,提升全球偏远区域网络服务能力,推动卫星互联网的全球普及。

基本信息
目录编号:
61575
目录名称:
STARLINK-11376
国际标识:
2024-187B
轨道中心:
EARTH
卫星名称:
星链-11376
卫星全名:
星链-11376 (STARLINK-11376)
卫星状态:
在轨 (已飞行693 天)
发射日期:
2024-10-18 UTC
国别 :
美国 (US)
星等 :
--
该卫星已列入 空间交会检测服务 Space Conjunction Data Service (SCDS) ,当前飞行风险评估等级: 无高风险
轨道信息
数据来源 国际轨道数据 AOE轨道数据
星历时间 2026-09-11T07:39:28+0800
13小时前
查看轨道信息
2026-09-05T22:00:00+0800
5天前
查看轨道信息
半长轴 6737.828km 6737.8km
偏心率 0.0000756 0.0000743
轨道倾角 53.157° 53.158°
近地点辐角 56.856° 142.614°
升交点赤经 102.780° 129.411°
平近点角 303.253° 271.062°
近地点 359.181km 359.162km
远地点 360.201km 360.164km
周期 91.736分钟 91.735分钟
每日圈数 15.697226 15.697323
详细信息
固有亮度:
5
最大亮度:
2.5
卫星平台:
Starlink V1.0
覆盖范围:
全球
运营商:
太空探索技术公司
运营商所在国:
美国
制造商(研发单位):
太空探索技术公司
制造商所在国:
美国
使用方式:
暂无
卫星简介
Starlink 计划是 SpaceX 推出的全球卫星互联网项目,通过发射低轨道卫星,为全球尤其是偏远地区提供高速、低延迟的互联网服务。自 2019 年起,Starlink 已部署数千颗卫星,旨在缩小全球数字鸿沟,推动互联网普及。该项目还为军事、航空等行业提供通信支持,带来广泛经济效益。
2D轨道图
3D轨道图
轨道高度分析图
轨道倾角分析图
轨道综合分析图
查看轨道综合分析图
交会数据列表
事件ID 空间交会对象 最接近时刻(TCA) 交会距离 交会风险概率(CRP) 交会风险指数(CRI) 操作
CDM_260913-003906-157506-299021
2026-09-13T
00:39:53+0000
0.973 km
远距离
2.388203E-5 中风险 0.63
CDM_260913-064106-157506-837021
2026-09-13T
06:41:25+0000
2.999 km
极远距离
1.310789E-6 低风险 0.37
与全量物体交会距离演化趋势
与全量物体交会风险概率演化趋势